GW3806 Weather Reports


Display with metric or nautical units.
time (UTC)temp
F
wind
direction
speed
MPH
gust
MPH
rain 1hr
in
rain 24hr
in
rain mn
in
humidity
%
barometer
mb
20260831203552 75 218 7.0 8.0 0.00 0.00 0.00 33 1019.8
20260831203051 75 213 6.0 6.0 0.00 0.00 0.00 32 1020.0
20260831202550 74 154 3.0 11.0 0.00 0.00 0.00 33 1019.8
20260831202050 73 234 4.0 6.0 0.00 0.00 0.00 32 1020.0
20260831201549 74 179 6.0 10.0 0.00 0.00 0.00 32 1020.4
20260831201044 73 249 4.0 7.0 0.00 0.00 0.00 32 1020.2
20260831200540 74 219 3.0 7.0 0.00 0.00 0.00 31 1020.4
20260831200035 73 236 5.0 12.0 0.00 0.00 0.00 34 1020.4
20260831195531 73 215 1.0 9.0 0.00 0.00 0.00 32 1020.5
20260831195025 73 240 3.0 8.0 0.00 0.00 0.00 34 1020.2
20260831194520 73 180 2.0 5.0 0.00 0.00 0.00 33 1020.4
20260831194020 74 216 4.0 5.0 0.00 0.00 0.00 34 1020.2
20260831193510 72 201 8.0 10.0 0.00 0.00 0.00 31 1020.4
20260831193005 73 166 4.0 8.0 0.00 0.00 0.00 35 1020.5
20260831192500 72 180 6.0 8.0 0.00 0.00 0.00 32 1020.6
20260831191954 72 209 3.0 17.0 0.00 0.00 0.00 34 1020.6
20260831191451 72 197 5.0 10.0 0.00 0.00 0.00 32 1020.7
20260831190947 73 150 4.0 6.0 0.00 0.00 0.00 34 1020.8
20260831190442 72 154 9.0 10.0 0.00 0.00 0.00 32 1020.8
20260831185940 72 242 5.0 10.0 0.00 0.00 0.00 31 1020.7
20260831185437 73 175 2.0 7.0 0.00 0.00 0.00 34 1020.7
20260831184936 71 190 7.0 11.0 0.00 0.00 0.00 34 1020.8
20260831184431 71 211 3.0 10.0 0.00 0.00 0.00 34 1020.8
20260831183927 72 161 5.0 13.0 0.00 0.00 0.00 34 1021.1
20260831183426 70 246 4.0 14.0 0.00 0.00 0.00 35 1021.0
20260831182925 70 145 8.0 11.0 0.00 0.00 0.00 34 1021.1
20260831182421 70 232 11.0 14.0 0.00 0.00 0.00 35 1021.2
20260831181916 71 214 3.0 11.0 0.00 0.00 0.00 36 1021.1
20260831181411 70 196 7.0 14.0 0.00 0.00 0.00 35 1021.3
20260831180906 70 214 5.0 13.0 0.00 0.00 0.00 37 1021.2
20260831180400 70 221 5.0 12.0 0.00 0.00 0.00 37 1021.2
20260831175859 70 252 4.0 13.0 0.00 0.00 0.00 36 1021.1
20260831175356 70 202 8.0 15.0 0.00 0.00 0.00 37 1021.2
20260831174852 70 210 7.0 13.0 0.00 0.00 0.00 36 1021.1
20260831174347 70 204 7.0 11.0 0.00 0.00 0.00 35 1021.0
20260831173846 70 261 4.0 6.0 0.00 0.00 0.00 34 1020.8
20260831173340 69 210 7.0 14.0 0.00 0.00 0.00 36 1021.2
20260831172835 70 163 7.0 11.0 0.00 0.00 0.00 32 1020.7
20260831172331 70 210 9.0 9.0 0.00 0.00 0.00 34 1021.0
20260831171830 68 237 7.0 10.0 0.00 0.00 0.00 33 1020.8
20260831171327 68 216 2.0 10.0 0.00 0.00 0.00 33 1020.8
20260831170824 68 199 5.0 9.0 0.00 0.00 0.00 31 1020.6
20260831170320 67 206 6.0 15.0 0.00 0.00 0.00 32 1020.6
20260831165816 68 220 5.0 8.0 0.00 0.00 0.00 31 1020.5
20260831165312 68 230 4.0 7.0 0.00 0.00 0.00 31 1020.6
20260831164808 68 169 5.0 12.0 0.00 0.00 0.00 31 1020.6
20260831164304 68 228 9.0 10.0 0.00 0.00 0.00 30 1020.7
20260831163759 67 201 5.0 8.0 0.00 0.00 0.00 31 1020.6
20260831163255 66 222 5.0 11.0 0.00 0.00 0.00 29 1020.6
20260831162753 67 216 7.0 11.0 0.00 0.00 0.00 31 1020.5
20260831162248 66 219 5.0 12.0 0.00 0.00 0.00 29 1020.2
20260831161742 66 168 4.0 7.0 0.00 0.00 0.00 31 1020.5
20260831161238 66 191 4.0 9.0 0.00 0.00 0.00 31 1020.5
20260831160738 66 211 5.0 7.0 0.00 0.00 0.00 28 1020.5
20260831160228 67 232 4.0 4.0 0.00 0.00 0.00 31 1020.5
20260831155727 66 246 0.0 4.0 0.00 0.00 0.00 30 1020.5
20260831155223 66 209 1.0 3.0 0.00 0.00 0.00 29 1020.2
20260831154718 65 294 0.0 5.0 0.00 0.00 0.00 34 1020.4
20260831154209 64 192 0.0 3.0 0.00 0.00 0.00 34 1020.2
20260831153707 63 352 0.0 3.0 0.00 0.00 0.00 34 1020.2
20260831153203 64 99 0.0 4.0 0.00 0.00 0.00 32 1020.4
20260831152659 64 101 3.0 4.0 0.00 0.00 0.00 38 1020.2
20260831152154 63 110 0.0 3.0 0.00 0.00 0.00 41 1020.4
20260831151654 61 96 2.0 3.0 0.00 0.00 0.00 42 1020.2
20260831151143 60 103 2.0 6.0 0.00 0.00 0.00 37 1020.2
20260831150638 59 101 5.0 7.0 0.00 0.00 0.00 41 1020.2
20260831150133 58 78 0.0 6.0 0.00 0.00 0.00 44 1020.4
20260831145627 57 98 3.0 8.0 0.00 0.00 0.00 45 1020.1
20260831145124 56 32 1.0 7.0 0.00 0.00 0.00 48 1020.2
20260831144619 55 95 5.0 7.0 0.00 0.00 0.00 46 1020.4
20260831144115 54 90 3.0 8.0 0.00 0.00 0.00 49 1020.2
20260831143614 53 101 6.0 6.0 0.00 0.00 0.00 48 1020.2
20260831143110 52 130 5.0 8.0 0.00 0.00 0.00 49 1020.2
20260831142606 52 111 6.0 9.0 0.00 0.00 0.00 47 1020.0
20260831142101 52 94 5.0 6.0 0.00 0.00 0.00 47 1020.0
20260831141600 50 352 2.0 6.0 0.00 0.00 0.00 48 1019.9
20260831141055 49 154 0.0 5.0 0.00 0.00 0.00 49 1019.9
20260831140554 48 270 0.0 6.0 0.00 0.00 0.00 50 1019.8
20260831140049 48 78 1.0 6.0 0.00 0.00 0.00 50 1019.8
20260831135547 47 265 2.0 5.0 0.00 0.00 0.00 50 1019.8
20260831135043 45 296 3.0 5.0 0.00 0.00 0.00 50 1019.8
20260831134538 44 93 0.0 7.0 0.00 0.00 0.00 51 1019.5
20260831134033 44 334 0.0 5.0 0.00 0.00 0.00 52 1019.8
20260831133527 44 184 2.0 3.0 0.00 0.00 0.00 52 1019.5
20260831133022 42 110 3.0 4.0 0.00 0.00 0.00 54 1019.5
20260831132519 42 300 1.0 5.0 0.00 0.00 0.00 55 1019.6
20260831132017 42 341 3.0 4.0 0.00 0.00 0.00 54 1019.4
20260831131517 42 0 1.0 5.0 0.00 0.00 0.00 55 1019.4
20260831131014 42 95 2.0 4.0 0.00 0.00 0.00 54 1019.4
20260831130514 41 8 3.0 6.0 0.00 0.00 0.00 54 1019.3
20260831130009 41 35 6.0 6.0 0.00 0.00 0.00 55 1019.1
20260831125503 41 40 3.0 5.0 0.00 0.00 0.00 55 1018.9
20260831124959 41 261 2.0 5.0 0.00 0.00 0.00 54 1018.9
20260831124454 42 270 1.0 4.0 0.00 0.00 0.00 53 1018.9
20260831123950 42 0 2.0 5.0 0.00 0.00 0.00 53 1019.0
20260831123449 41 0 3.0 5.0 0.00 0.00 0.00 54 1019.0
20260831122943 41 330 0.0 5.0 0.00 0.00 0.00 56 1019.0
20260831122433 41 330 2.0 4.0 0.00 0.00 0.00 55 1019.0
20260831121929 41 354 3.0 3.0 0.00 0.00 0.00 55 1018.8
20260831121424 42 331 0.0 4.0 0.00 0.00 0.00 54 1019.0
20260831120920 42 294 0.0 5.0 0.00 0.00 0.00 53 1019.0
20260831120414 42 114 3.0 5.0 0.00 0.00 0.00 53 1019.0
20260831115913 42 348 0.0 4.0 0.00 0.00 0.00 54 1019.0
20260831115410 42 301 3.0 6.0 0.00 0.00 0.00 52 1019.0
20260831114909 42 288 2.0 5.0 0.00 0.00 0.00 51 1018.9
20260831114408 42 337 6.0 6.0 0.00 0.00 0.00 53 1018.9
20260831113905 42 344 2.0 3.0 0.00 0.00 0.00 53 1018.9
20260831113404 42 175 0.0 5.0 0.00 0.00 0.00 52 1019.0
20260831112859 42 337 1.0 5.0 0.00 0.00 0.00 53 1018.9
20260831112354 43 31 2.0 4.0 0.00 0.00 0.00 52 1018.8
20260831111849 43 138 3.0 5.0 0.00 0.00 0.00 51 1019.1
20260831111345 42 7 2.0 4.0 0.00 0.00 0.00 53 1019.0
20260831110841 43 0 2.0 4.0 0.00 0.00 0.00 52 1019.0
20260831110340 42 23 0.0 5.0 0.00 0.00 0.00 53 1018.9
20260831105839 43 2 3.0 6.0 0.00 0.00 0.00 52 1018.9
20260831105335 42 342 2.0 5.0 0.00 0.00 0.00 53 1018.9
20260831104831 42 6 3.0 5.0 0.00 0.00 0.00 54 1018.9
20260831104327 42 355 1.0 3.0 0.00 0.00 0.00 54 1018.9
20260831103826 42 124 2.0 4.0 0.00 0.00 0.00 54 1019.1
20260831103322 43 114 0.0 4.0 0.00 0.00 0.00 52 1018.9
20260831102817 42 106 0.0 3.0 0.00 0.00 0.00 53 1019.1
20260831102312 42 206 1.0 4.0 0.00 0.00 0.00 52 1019.0
20260831101808 43 55 2.0 6.0 0.00 0.00 0.00 52 1019.1
20260831101303 43 90 2.0 5.0 0.00 0.00 0.00 51 1019.0
20260831100759 43 12 2.0 5.0 0.00 0.00 0.00 52 1019.0
20260831100254 43 17 5.0 5.0 0.00 0.00 0.00 52 1019.0
20260831095754 42 57 0.0 5.0 0.00 0.00 0.00 53 1019.0
20260831095249 43 12 2.0 4.0 0.00 0.00 0.00 52 1019.1
20260831094748 43 20 0.0 5.0 0.00 0.00 0.00 52 1019.1
20260831094244 43 240 1.0 4.0 0.00 0.00 0.00 52 1019.0
20260831093740 42 357 3.0 4.0 0.00 0.00 0.00 54 1019.0
20260831093235 42 90 3.0 3.0 0.00 0.00 0.00 55 1019.1
20260831092732 42 311 0.0 4.0 0.00 0.00 0.00 55 1019.1
20260831092227 42 129 2.0 4.0 0.00 0.00 0.00 54 1019.0
20260831091726 43 354 3.0 4.0 0.00 0.00 0.00 54 1019.3
20260831091222 43 105 1.0 4.0 0.00 0.00 0.00 55 1019.1
20260831090717 43 18 2.0 4.0 0.00 0.00 0.00 54 1019.1
20260831090214 43 90 2.0 4.0 0.00 0.00 0.00 53 1019.3
20260831085709 43 90 0.0 4.0 0.00 0.00 0.00 54 1019.3
20260831085204 42 246 0.0 3.0 0.00 0.00 0.00 56 1019.1
20260831084659 43 240 0.0 3.0 0.00 0.00 0.00 54 1019.3
20260831084155 43 59 0.0 3.0 0.00 0.00 0.00 54 1019.4
20260831083651 43 105 0.0 5.0 0.00 0.00 0.00 55 1019.4
20260831083146 44 180 0.0 5.0 0.00 0.00 0.00 53 1019.4
20260831082644 44 7 2.0 3.0 0.00 0.00 0.00 53 1019.4
20260831082140 44 26 2.0 6.0 0.00 0.00 0.00 54 1019.4
20260831081636 44 291 1.0 3.0 0.00 0.00 0.00 54 1019.6
20260831081131 43 4 0.0 5.0 0.00 0.00 0.00 57 1019.5
20260831080627 43 108 2.0 3.0 0.00 0.00 0.00 58 1019.8
20260831080121 43 0 2.0 5.0 0.00 0.00 0.00 57 1019.6
20260831075617 43 187 0.0 3.0 0.00 0.00 0.00 56 1019.5
20260831075113 42 306 0.0 3.0 0.00 0.00 0.00 59 1019.6
20260831074612 42 103 5.0 5.0 0.00 0.00 0.00 59 1019.5
20260831074107 43 297 1.0 5.0 0.00 0.00 0.00 58 1019.5
20260831073602 43 324 2.0 3.0 0.00 0.00 0.00 57 1019.5
20260831073101 43 97 3.0 6.0 0.00 0.00 0.00 58 1019.5
20260831072556 43 103 1.0 5.0 0.00 0.00 0.00 59 1019.4
20260831072054 44 41 2.0 5.0 0.00 0.00 0.00 58 1019.4
20260831071551 44 15 0.0 4.0 0.00 0.00 0.00 58 1019.6
20260831071047 44 61 0.0 4.0 0.00 0.00 0.00 58 1019.4
20260831070546 44 101 2.0 4.0 0.00 0.00 0.00 59 1019.6
20260831070041 43 99 0.0 5.0 0.00 0.00 0.00 60 1019.4
20260831065538 43 128 3.0 7.0 0.00 0.00 0.00 61 1019.5
20260831065033 44 185 1.0 6.0 0.00 0.00 0.00 60 1019.4
20260831064528 44 109 3.0 8.0 0.00 0.00 0.00 60 1019.4
20260831064024 44 90 2.0 4.0 0.00 0.00 0.00 59 1019.4
20260831063519 44 101 2.0 5.0 0.00 0.00 0.00 61 1019.5
20260831063014 44 14 1.0 8.0 0.00 0.00 0.00 60 1019.4
20260831062509 44 20 1.0 4.0 0.00 0.00 0.00 61 1019.4
20260831062008 44 60 2.0 4.0 0.00 0.00 0.00 61 1019.4
20260831061506 44 236 2.0 2.0 0.00 0.00 0.00 62 1019.4
20260831061003 44 358 0.0 4.0 0.00 0.00 0.00 61 1019.4
20260831060502 44 259 2.0 5.0 0.00 0.00 0.00 61 1019.4
20260831055956 44 111 3.0 9.0 0.00 0.01 0.01 62 1019.4
20260831055451 44 270 1.0 5.0 0.00 0.01 0.01 62 1019.4
20260831054942 44 327 0.0 5.0 0.00 0.01 0.01 63 1019.1
20260831054441 44 81 0.0 7.0 0.00 0.01 0.01 65 1019.1
20260831053935 44 116 4.0 7.0 0.00 0.01 0.01 64 1019.3
20260831053433 44 125 7.0 9.0 0.00 0.01 0.01 63 1019.4
20260831052928 44 109 8.0 9.0 0.00 0.01 0.01 63 1019.4
20260831052427 45 195 0.0 10.0 0.00 0.01 0.01 62 1019.3
20260831051926 45 114 4.0 5.0 0.00 0.01 0.01 64 1019.3
20260831051425 45 111 3.0 5.0 0.00 0.01 0.01 63 1019.4
20260831050920 46 177 0.0 5.0 0.00 0.01 0.01 61 1019.1
20260831050419 46 90 0.0 4.0 0.00 0.01 0.01 62 1019.1
20260831045918 46 97 3.0 7.0 0.00 0.01 0.01 62 1019.1
20260831045417 46 175 0.0 5.0 0.00 0.01 0.01 62 1019.3
20260831044913 46 14 0.0 4.0 0.00 0.01 0.01 62 1019.1
20260831044408 46 329 3.0 3.0 0.00 0.01 0.01 63 1019.3
20260831043904 46 270 0.0 3.0 0.00 0.01 0.01 62 1019.4
20260831043403 46 69 0.0 3.0 0.00 0.01 0.01 62 1019.3
20260831042859 45 113 3.0 5.0 0.00 0.01 0.01 64 1019.3
20260831042358 46 11 2.0 4.0 0.00 0.01 0.01 63 1019.1
20260831041853 46 51 0.0 5.0 0.00 0.01 0.01 62 1019.1
20260831041352 46 31 0.0 4.0 0.00 0.01 0.01 61 1019.1
20260831040847 46 105 0.0 4.0 0.00 0.01 0.01 62 1019.0
20260831040342 47 82 0.0 4.0 0.00 0.01 0.01 62 1019.1
20260831035840 47 26 1.0 4.0 0.00 0.01 0.01 61 1019.1
20260831035339 47 90 0.0 4.0 0.00 0.01 0.01 61 1018.8
20260831034834 47 115 2.0 6.0 0.00 0.01 0.01 62 1019.0
20260831034329 47 354 1.0 3.0 0.00 0.01 0.01 62 1019.0
20260831033824 47 257 0.0 4.0 0.00 0.01 0.01 61 1018.8
20260831033319 47 112 0.0 4.0 0.00 0.01 0.01 61 1018.8
20260831032814 48 103 3.0 5.0 0.00 0.01 0.01 61 1018.8
20260831032309 49 94 0.0 5.0 0.00 0.01 0.01 59 1018.7
20260831031804 49 17 3.0 5.0 0.00 0.01 0.01 56 1018.7
20260831031303 48 345 0.0 4.0 0.00 0.01 0.01 59 1018.4
20260831030758 47 66 1.0 4.0 0.00 0.01 0.01 61 1018.5
20260831030255 47 90 1.0 2.0 0.00 0.01 0.01 61 1018.5
20260831025749 48 90 2.0 3.0 0.00 0.01 0.01 60 1018.3
20260831025243 48 78 1.0 4.0 0.00 0.01 0.01 60 1018.5
20260831024740 47 103 1.0 3.0 0.00 0.01 0.01 61 1018.5
20260831024239 48 114 1.0 3.0 0.00 0.01 0.01 62 1018.3
20260831023738 49 102 1.0 4.0 0.00 0.01 0.01 57 1018.2
20260831023237 50 123 1.0 3.0 0.00 0.01 0.01 57 1018.3
20260831022732 51 90 2.0 4.0 0.00 0.01 0.01 55 1018.4
20260831022232 54 92 5.0 5.0 0.00 0.01 0.01 50 1018.3
20260831021727 54 121 3.0 6.0 0.00 0.01 0.01 47 1018.2
20260831021226 55 153 3.0 5.0 0.00 0.01 0.01 46 1018.2
20260831020723 55 148 5.0 5.0 0.00 0.01 0.01 47 1018.2
20260831020222 55 152 3.0 4.0 0.00 0.01 0.01 47 1018.2
20260831015718 55 150 2.0 4.0 0.00 0.01 0.01 48 1018.2
20260831015213 58 154 3.0 3.0 0.00 0.01 0.01 41 1018.2
20260831014708 59 194 1.0 2.0 0.00 0.01 0.01 39 1018.2
20260831014203 59 209 0.0 1.0 0.00 0.01 0.01 39 1018.2
20260831013659 60 220 2.0 3.0 0.00 0.01 0.01 37 1018.3
20260831013158 61 172 2.0 5.0 0.00 0.01 0.01 36 1018.3
20260831012653 62 218 11.0 11.0 0.00 0.01 0.01 36 1018.3
20260831012149 62 252 4.0 9.0 0.00 0.01 0.01 35 1018.3
20260831011648 63 225 4.0 6.0 0.00 0.01 0.01 34 1018.4
20260831011144 64 247 3.0 6.0 0.00 0.01 0.01 35 1018.3
20260831010639 64 241 2.0 6.0 0.00 0.01 0.01 34 1018.3
20260831010135 65 231 2.0 5.0 0.00 0.01 0.01 35 1018.1
20260831005634 65 229 5.0 6.0 0.00 0.01 0.01 34 1018.3
20260831005130 65 223 4.0 7.0 0.00 0.01 0.01 33 1018.3
20260831004625 65 221 4.0 9.0 0.00 0.01 0.01 33 1018.2
20260831004115 65 227 10.0 13.0 0.00 0.01 0.01 33 1018.3
20260831003611 66 210 9.0 14.0 0.00 0.01 0.01 33 1018.3
20260831003107 66 237 7.0 12.0 0.00 0.01 0.01 32 1018.4
20260831002605 65 208 9.0 14.0 0.00 0.01 0.01 32 1018.3
20260831002101 66 223 14.0 14.0 0.00 0.01 0.01 31 1018.2
20260831001556 66 190 9.0 22.0 0.00 0.01 0.01 31 1018.1
20260831001052 66 225 9.0 16.0 0.00 0.01 0.01 32 1018.2
20260831000549 66 218 10.0 14.0 0.00 0.01 0.01 32 1018.3
20260831000048 66 217 11.0 15.0 0.00 0.01 0.01 30 1018.1
20260830235547 67 219 9.0 15.0 0.00 0.01 0.01 31 1018.2
20260830235042 67 217 7.0 17.0 0.00 0.01 0.01 32 1017.9
20260830234537 67 235 7.0 14.0 0.00 0.01 0.01 32 1018.1
20260830234032 67 232 6.0 17.0 0.00 0.01 0.01 31 1018.1
20260830233527 67 166 3.0 15.0 0.00 0.01 0.01 31 1018.2
20260830233024 68 296 3.0 20.0 0.00 0.01 0.01 32 1018.2
20260830232519 67 213 9.0 16.0 0.00 0.01 0.01 32 1018.1
20260830232015 67 209 10.0 20.0 0.00 0.01 0.01 32 1018.2
20260830231511 68 232 9.0 11.0 0.00 0.01 0.01 33 1017.9
20260830231010 68 172 3.0 18.0 0.00 0.01 0.01 33 1018.1
20260830230506 67 227 7.0 19.0 0.00 0.01 0.01 30 1018.2
20260830230005 67 228 12.0 21.0 0.00 0.01 0.01 30 1018.2
20260830225501 69 221 7.0 13.0 0.00 0.01 0.01 32 1018.1
20260830225000 68 225 9.0 14.0 0.00 0.01 0.01 32 1018.1
20260830224458 69 207 4.0 14.0 0.00 0.01 0.01 31 1017.9
20260830223955 68 246 8.0 26.0 0.00 0.01 0.01 32 1017.9
20260830223452 69 187 5.0 12.0 0.00 0.01 0.01 33 1018.3
20260830222951 69 209 9.0 14.0 0.00 0.01 0.01 31 1017.9
20260830222446 68 217 15.0 15.0 0.00 0.01 0.01 31 1018.1
20260830221942 67 228 7.0 22.0 0.00 0.01 0.01 30 1018.2
20260830221438 67 229 13.0 24.0 0.00 0.01 0.01 30 1018.2
20260830220933 68 260 10.0 17.0 0.00 0.01 0.01 30 1018.2
20260830220428 68 233 2.0 14.0 0.00 0.01 0.01 31 1018.3
20260830215925 67 230 13.0 19.0 0.00 0.01 0.01 29 1018.2
20260830215420 68 221 8.0 19.0 0.00 0.01 0.01 31 1018.2
20260830214914 66 214 6.0 22.0 0.00 0.01 0.01 30 1018.2
20260830214405 68 229 9.0 23.0 0.00 0.01 0.01 31 1018.2
20260830213904 69 210 9.0 13.0 0.00 0.01 0.01 33 1018.1
20260830213400 68 222 9.0 14.0 0.00 0.01 0.01 31 1018.1
20260830212855 69 249 7.0 9.0 0.00 0.01 0.01 33 1018.2
20260830212351 67 210 7.0 22.0 0.00 0.01 0.01 33 1018.4
20260830211850 68 199 9.0 22.0 0.00 0.01 0.01 33 1018.2
20260830211345 68 203 6.0 15.0 0.00 0.01 0.01 32 1018.3
20260830210841 68 242 14.0 15.0 0.00 0.01 0.01 34 1018.3
20260830210339 67 251 12.0 24.0 0.00 0.01 0.01 32 1018.3
20260830205838 68 191 6.0 14.0 0.00 0.01 0.01 34 1018.3
20260830205337 68 217 8.0 19.0 0.00 0.01 0.01 35 1018.4
20260830204832 68 170 5.0 21.0 0.00 0.01 0.01 34 1018.4
20260830204331 67 212 8.0 19.0 0.00 0.01 0.01 33 1018.2